Terminal Aerodrome Forecast
Issued by NWS Chicago, IL

Home | Current Version | Previous Version | Graphics & Text | Print | Product List | Glossary On
Versions: 1 2 3 4 5 6 7 8 9 10 11 12 13 14 15 16 17 18 19 20 21 22 23 24 25 26 27 28 29 30 31 32
000
FTUS43 KLOT 131100 RRA
TAFRFD
TAF
KRFD 131141Z 1312/1412 VRB06KT P6SM BKN160
     FM131400 32012KT P6SM SCT040 BKN250
     FM131800 11010KT 3SM SHRA BR SCT007 BKN025CB
      TEMPO 1319/1323 2SM TSRA BR BKN007CB
     FM132300 15012KT 4SM SHRA VCTS OVC007CB
      TEMPO 1323/1403 2SM TSRA BR OVC007CB
     FM140300 02016G24KT 4SM RA BR OVC009=

USA.gov is the U.S. government's official web portal to all federal, state and local government web resources and services.